Location: Les Moreaux
(47.2278°N, 1.4966°E)
Time: 15:12:11
(UTC+00:00)

Cosmos 1805 Rocket - Pass Details

Date: 19 May 2025
Orbit: 600 x 623 km, 82.5° (Epoch: 17 June)

Event Time Altitude Azimuth Distance (km) Brightness Sun altitude
Rises 23:02:25 0° 353° (N) 2,917 8.5 -21.9°
Reaches altitude 10° 23:04:42 10° 357° (N) 2,004 7.3 -22.0°
Maximum altitude 23:09:06 62° 79° (ENE) 701 3.7 -22.1°
Enters shadow 23:09:38 57° 115° (ESE) 737 3.7 -22.2°
